Total_Precipitation_Accumulation
0.66 0.67 0.71 0.72 0.76 0.86 0.98 1.07 1.10 1.10 1.08 1.16 1.25 1.32 1.31 1.32 1.35 1.33 1.23 1.17 1.12 1.06 1.02 1.04 1.04 1.02 1.08 1.11 1.16 1.25 1.36 1.51 1.57 1.28 1.07 1.07 1.14 1.15 1.17 1.08 1.03 1.06 1.05
0.53 0.53 0.55 0.58 0.60 0.66 0.75 0.83 0.89 0.95 0.97 1.00 0.99 1.00 1.06 1.11 1.17 1.21 1.18 1.11 1.05 0.99 0.96 0.96 0.96 0.97 1.03 1.08 1.15 1.23 1.28 1.35 1.42 1.32 1.12 1.02 0.96 0.91 0.89 0.86 0.80 0.78 0.77
0.44 0.46 0.47 0.47 0.48 0.52 0.56 0.61 0.64 0.70 0.80 0.87 0.87 0.85 0.83 0.82 0.88 0.97 1.03 1.06 1.02 0.98 0.98 0.99 0.98 1.00 1.03 1.07 1.14 1.21 1.22 1.20 1.18 1.12 0.97 0.84 0.76 0.72 0.73 0.71 0.67 0.67 0.63
0.39 0.41 0.42 0.41 0.42 0.44 0.45 0.48 0.48 0.50 0.53 0.57 0.62 0.65 0.69 0.70 0.70 0.75 0.82 0.91 0.98 0.99 1.00 1.01 1.03 1.08 1.14 1.19 1.20 1.18 1.15 1.11 1.06 1.00 0.91 0.81 0.71 0.63 0.64 0.66 0.65 0.62 0.59
0.38 0.36 0.36 0.38 0.38 0.37 0.37 0.36 0.34 0.33 0.34 0.38 0.44 0.47 0.53 0.58 0.61 0.65 0.68 0.74 0.79 0.86 0.95 1.02 1.07 1.16 1.19 1.13 1.03 0.95 0.90 0.90 0.89 0.89 0.82 0.72 0.63 0.58 0.57 0.52 0.54 0.55 0.56
0.36 0.35 0.35 0.35 0.35 0.35 0.33 0.29 0.28 0.28 0.29 0.32 0.36 0.40 0.46 0.49 0.62 0.63 0.59 0.60 0.69 0.75 0.80 0.87 0.95 1.00 0.94 0.90 0.84 0.78 0.79 0.83 0.82 0.74 0.66 0.57 0.47 0.41 0.42 0.48 0.55 0.63 0.63
0.42 0.38 0.35 0.35 0.35 0.36 0.36 0.36 0.35 0.34 0.34 0.35 0.37 0.39 0.43 0.50 0.62 0.63 0.67 0.63 0.66 0.70 0.70 0.70 0.68 0.66 0.67 0.58 0.60 0.60 0.62 0.64 0.61 0.56 0.54 0.45 0.39 0.36 0.45 0.55 0.57 0.58 0.50
0.52 0.52 0.47 0.48 0.50 0.52 0.54 0.54 0.53 0.53 0.53 0.52 0.52 0.53 0.56 0.65 0.72 0.67 0.65 0.59 0.58 0.58 0.54 0.50 0.48 0.46 0.45 0.47 0.49 0.50 0.43 0.40 0.38 0.35 0.33 0.31 0.33 0.39 0.48 0.59 0.60 0.61 0.53
0.69 0.75 0.75 0.74 0.76 0.79 0.83 0.86 0.83 0.80 0.79 0.78 0.78 0.75 0.73 0.72 0.68 0.57 0.50 0.44 0.43 0.40 0.37 0.35 0.34 0.34 0.40 0.46 0.45 0.44 0.41 0.38 0.38 0.39 0.38 0.38 0.42 0.45 0.50 0.57 0.67 0.79 0.72
0.81 0.87 0.85 0.85 0.86 0.86 0.86 0.86 0.83 0.78 0.75 0.73 0.72 0.68 0.62 0.54 0.48 0.40 0.35 0.30 0.28 0.26 0.26 0.27 0.31 0.33 0.42 0.51 0.46 0.45 0.45 0.40 0.41 0.43 0.41 0.39 0.37 0.38 0.45 0.45 0.52 0.78 0.80
0.79 0.75 0.69 0.67 0.63 0.59 0.56 0.54 0.52 0.49 0.46 0.44 0.42 0.38 0.33 0.30 0.29 0.28 0.28 0.25 0.25 0.27 0.27 0.27 0.29 0.37 0.44 0.51 0.53 0.48 0.48 0.49 0.46 0.46 0.45 0.43 0.42 0.42 0.41 0.38 0.41 0.62 0.84
0.51 0.44 0.37 0.36 0.35 0.34 0.33 0.31 0.28 0.26 0.24 0.23 0.21 0.20 0.18 0.18 0.21 0.23 0.26 0.27 0.29 0.28 0.27 0.25 0.27 0.38 0.45 0.48 0.48 0.49 0.55 0.57 0.50 0.49 0.49 0.48 0.45 0.43 0.41 0.39 0.40 0.44 0.52
0.21 0.17 0.15 0.14 0.16 0.16 0.18 0.18 0.15 0.13 0.13 0.14 0.13 0.14 0.15 0.16 0.18 0.22 0.25 0.27 0.31 0.29 0.27 0.31 0.37 0.42 0.43 0.41 0.43 0.47 0.51 0.49 0.49 0.51 0.47 0.41 0.37 0.37 0.41 0.45 0.48 0.49 0.48
0.12 0.11 0.09 0.09 0.10 0.12 0.14 0.15 0.16 0.15 0.15 0.16 0.16 0.16 0.16 0.16 0.17 0.20 0.23 0.26 0.31 0.32 0.30 0.32 0.37 0.41 0.43 0.42 0.42 0.43 0.44 0.45 0.48 0.49 0.44 0.40 0.40 0.43 0.46 0.48 0.53 0.56 0.61
0.13 0.13 0.13 0.11 0.11 0.13 0.15 0.17 0.20 0.19 0.21 0.24 0.24 0.23 0.24 0.22 0.21 0.29 0.35 0.34 0.36 0.39 0.43 0.43 0.42 0.40 0.41 0.41 0.40 0.40 0.41 0.45 0.49 0.48 0.51 0.52 0.51 0.50 0.49 0.48 0.56 0.63 0.68
0.17 0.17 0.19 0.19 0.17 0.17 0.18 0.20 0.23 0.25 0.27 0.28 0.28 0.29 0.28 0.28 0.31 0.37 0.40 0.42 0.45 0.52 0.57 0.49 0.41 0.38 0.38 0.38 0.39 0.41 0.42 0.45 0.47 0.53 0.59 0.62 0.63 0.62 0.60 0.56 0.61 0.69 0.68
0.23 0.25 0.26 0.26 0.25 0.25 0.26 0.26 0.26 0.28 0.32 0.32 0.30 0.30 0.30 0.32 0.36 0.38 0.42 0.46 0.49 0.54 0.53 0.40 0.33 0.33 0.35 0.37 0.40 0.44 0.45 0.44 0.52 0.62 0.67 0.68 0.71 0.73 0.72 0.70 0.68 0.72 0.70
0.21 0.25 0.26 0.26 0.27 0.27 0.28 0.29 0.31 0.31 0.30 0.28 0.29 0.32 0.35 0.37 0.39 0.42 0.47 0.54 0.53 0.48 0.41 0.35 0.34 0.35 0.39 0.43 0.45 0.49 0.51 0.52 0.58 0.63 0.66 0.69 0.76 0.84 0.84 0.77 0.74 0.76 0.79
0.21 0.23 0.26 0.28 0.30 0.31 0.31 0.32 0.32 0.32 0.30 0.28 0.28 0.32 0.40 0.46 0.48 0.49 0.52 0.51 0.44 0.37 0.33 0.33 0.35 0.40 0.44 0.49 0.52 0.54 0.58 0.61 0.61 0.65 0.66 0.67 0.75 0.90 0.87 0.74 0.76 0.78 0.85
0.24 0.30 0.34 0.34 0.34 0.34 0.35 0.36 0.35 0.34 0.34 0.32 0.31 0.34 0.46 0.58 0.54 0.46 0.43 0.39 0.37 0.34 0.34 0.37 0.39 0.44 0.50 0.55 0.58 0.62 0.64 0.62 0.63 0.67 0.67 0.69 0.75 0.87 0.88 0.79 0.79 0.85 0.81
0.27 0.31 0.39 0.38 0.34 0.35 0.38 0.40 0.40 0.41 0.39 0.36 0.32 0.38 0.60 0.67 0.56 0.45 0.41 0.40 0.40 0.41 0.42 0.46 0.47 0.50 0.54 0.58 0.62 0.63 0.65 0.61 0.60 0.66 0.69 0.72 0.79 0.85 0.80 0.82 0.82 0.84 0.90
0.30 0.31 0.34 0.36 0.36 0.38 0.43 0.45 0.46 0.44 0.40 0.38 0.35 0.40 0.56 0.56 0.49 0.46 0.44 0.42 0.42 0.45 0.49 0.57 0.56 0.52 0.57 0.66 0.72 0.74 0.68 0.60 0.58 0.67 0.73 0.74 0.78 0.81 0.83 0.88 0.90 0.96 0.99
0.33 0.34 0.35 0.35 0.36 0.40 0.43 0.40 0.41 0.41 0.39 0.38 0.39 0.40 0.44 0.46 0.43 0.44 0.44 0.45 0.47 0.49 0.51 0.57 0.58 0.52 0.51 0.61 0.72 0.85 0.86 0.70 0.65 0.78 0.94 0.94 0.92 0.95 1.01 1.05 0.99 0.96 0.87
0.33 0.35 0.36 0.36 0.36 0.37 0.37 0.35 0.36 0.38 0.40 0.41 0.41 0.40 0.39 0.41 0.42 0.42 0.44 0.47 0.49 0.50 0.52 0.55 0.55 0.52 0.52 0.59 0.64 0.69 0.74 0.83 1.02 1.15 1.29 1.48 1.38 1.20 1.15 1.08 0.94 0.88 0.87
0.33 0.36 0.38 0.39 0.39 0.39 0.39 0.38 0.37 0.37 0.40 0.41 0.41 0.40 0.39 0.40 0.41 0.41 0.42 0.45 0.48 0.50 0.49 0.50 0.53 0.54 0.55 0.57 0.59 0.61 0.68 0.83 1.11 1.48 1.64 1.57 1.34 1.14 1.12 1.07 0.94 0.89 0.89
0.34 0.37 0.40 0.41 0.41 0.41 0.41 0.41 0.39 0.40 0.42 0.42 0.43 0.44 0.43 0.43 0.42 0.43 0.45 0.46 0.48 0.47 0.46 0.46 0.48 0.52 0.56 0.58 0.55 0.59 0.69 0.78 0.88 1.05 1.38 1.47 1.30 1.11 1.11 1.17 1.03 0.98 0.96